DB0GIS-11 Weather Reports


Display with metric or nautical units.
time (UTC)temp
F
wind
direction
speed
MPH
gust
MPH
rain 1hr
in
rain 24hr
in
rain mn
in
humidity
%
barometer
mb
20260509161737 65 0.0 0.0 0.00 0.00 0.00 58 1012.2
20260509160733 65 0.0 0.0 0.00 0.00 0.00 57 1012.2
20260509155734 66 0.0 0.0 0.00 0.00 0.00 57 1012.2
20260509153717 66 55 2.0 6.0 0.00 0.00 0.00 58 1012.4
20260509152737 66 0.0 0.0 0.00 0.00 0.00 58 1012.5
20260509151724 66 0.0 0.0 0.00 0.00 0.00 58 1012.7
20260509150726 65 0.0 0.0 0.00 0.00 0.00 58 1012.8
20260509145721 65 0.0 0.0 0.00 0.00 0.00 58 1012.6
20260509144716 65 270 0.0 1.0 0.00 0.00 0.00 59 1012.8
20260509143724 65 0.0 0.0 0.00 0.00 0.00 58 1012.8
20260509142724 65 0.0 0.0 0.00 0.00 0.00 58 1013.0
20260509141739 65 0.0 0.0 0.00 0.00 0.00 58 1013.1
20260509140718 65 0.0 0.0 0.00 0.00 0.00 58 1013.2
20260509135752 65 0.0 0.0 0.00 0.00 0.00 59 1013.4
20260509134715 65 0.0 0.0 0.00 0.00 0.00 59 1013.5
20260509133719 65 0.0 0.0 0.00 0.00 0.00 59 1013.6
20260509131741 64 0.0 0.0 0.00 0.00 0.00 61 1014.0
20260509130718 64 0.0 0.0 0.00 0.00 0.00 61 1014.2
20260509125723 64 45 2.0 7.0 0.00 0.00 0.00 62 1014.2
20260509124756 63 0.0 0.0 0.00 0.00 0.00 61 1014.4
20260509123718 63 0.0 0.0 0.00 0.00 0.00 61 1014.5
20260509122722 63 0.0 0.0 0.00 0.00 0.00 62 1014.7
20260509121724 62 0.0 0.0 0.00 0.00 0.00 63 1014.9
20260509120729 62 0.0 0.0 0.00 0.00 0.00 63 1015.0
20260509113724 62 0.0 0.0 0.00 0.00 0.00 62 1015.3
20260509112718 62 90 0.0 1.0 0.00 0.00 0.00 62 1015.5
20260509111743 61 0.0 0.0 0.00 0.00 0.00 63 1015.6
20260509110715 62 0.0 0.0 0.00 0.00 0.00 61 1015.5
20260509105733 61 0.0 0.0 0.00 0.00 0.00 58 1015.7
20260509104732 61 0.0 0.0 0.00 0.00 0.00 57 1015.8
20260509103727 60 0.0 0.0 0.00 0.00 0.00 55 1015.9
20260509102721 60 68 0.0 2.0 0.00 0.00 0.00 50 1015.9
20260509101734 60 0.0 0.0 0.00 0.00 0.00 47 1015.9
20260509100729 59 0.0 0.0 0.00 0.00 0.00 40 1016.2
20260509095716 58 338 0.0 2.0 0.00 0.00 0.00 37 1016.2
20260509094742 58 0.0 0.0 0.00 0.00 0.00 31 1016.3
20260509093755 57 293 1.0 4.0 0.00 0.00 0.00 29 1016.4
20260509092715 56 293 0.0 1.0 0.00 0.00 0.00 27 1016.3
20260509091722 56 293 1.0 4.0 0.00 0.00 0.00 17 1016.5
20260509090750 55 0.0 0.0 0.00 0.00 0.00 10 1016.3
20260509085723 55 315 1.0 2.0 0.00 0.00 0.00 10 1016.4
20260509083730 53 315 0.0 3.0 0.00 0.00 0.00 10 1016.5
20260509082815 53 315 1.0 4.0 0.00 0.00 0.00 10 1016.5
20260509081725 52 315 0.0 2.0 0.00 0.00 0.00 10 1016.5
20260509080735 52 315 0.0 3.0 0.00 0.00 0.00 10 1016.5
20260509075717 52 315 2.0 4.0 0.00 0.00 0.00 10 1016.5
20260509074758 51 315 0.0 2.0 0.00 0.00 0.00 10 1016.4
20260509073725 51 0.0 0.0 0.00 0.00 0.00 10 1016.3
20260509072721 51 315 0.0 1.0 0.00 0.00 0.00 10 1016.3
20260509071759 50 315 0.0 1.0 0.00 0.00 0.00 10 1016.3
20260509070719 50 338 0.0 1.0 0.00 0.00 0.00 10 1016.5
20260509065740 49 0.0 0.0 0.00 0.00 0.00 10 1016.5
20260509064726 49 0.0 0.0 0.00 0.00 0.00 10 1016.4
20260509063744 49 0 0.0 1.0 0.00 0.00 0.00 10 1016.2
20260509062754 49 0.0 0.0 0.00 0.00 0.00 10 1016.1
20260509060757 48 0.0 0.0 0.00 0.00 0.00 10 1016.0
20260509055729 47 0.0 0.0 0.00 0.00 0.00 10 1016.0
20260509054722 48 0.0 0.0 0.00 0.00 0.00 10 1016.3
20260509053731 48 0.0 0.0 0.00 0.00 0.00 10 1016.2
20260509052724 47 0.0 0.0 0.00 0.00 0.00 10 1016.0
20260509051721 47 0.0 0.0 0.00 0.00 0.00 10 1016.1
20260509050726 47 0.0 0.0 0.00 0.00 0.00 10 1015.9
20260509045726 46 0.0 0.0 0.00 0.00 0.00 10 1015.9
20260509044727 45 0.0 0.0 0.00 0.00 0.00 10 1015.8
20260509043741 44 0.0 0.0 0.00 0.00 0.00 10 1015.7
20260509042716 43 0.0 0.0 0.00 0.00 0.00 10 1015.6
20260509040812 43 0.0 0.0 0.00 0.00 0.00 10 1015.7
20260509035759 43 0.0 0.0 0.00 0.00 0.00 10 1015.6
20260509034739 43 0.0 0.0 0.00 0.00 0.00 10 1015.6
20260509033734 43 0.0 0.0 0.00 0.00 0.00 10 1015.6
20260509032718 44 0.0 0.0 0.00 0.00 0.00 10 1015.6
20260509031739 44 0.0 0.0 0.00 0.00 0.00 10 1015.6
20260509030828 44 0.0 0.0 0.00 0.00 0.00 10 1015.6
20260509025742 44 0.0 0.0 0.00 0.00 0.00 10 1015.7
20260509024724 44 0.0 0.0 0.00 0.00 0.00 10 1015.8
20260509023738 44 0.0 0.0 0.00 0.00 0.00 10 1016.0
20260509022715 44 0.0 0.0 0.00 0.00 0.00 10 1015.8
20260509021722 44 0.0 0.0 0.00 0.00 0.00 10 1015.9
20260509020802 45 0.0 0.0 0.00 0.00 0.00 10 1015.7
20260509015726 45 0.0 0.0 0.00 0.00 0.00 10 1015.7
20260509014747 45 0.0 0.0 0.00 0.00 0.00 10 1015.6
20260509013729 45 0.0 0.0 0.00 0.00 0.00 10 1015.6
20260509012725 45 0.0 0.0 0.00 0.00 0.00 10 1015.6
20260509011729 45 0.0 0.0 0.00 0.00 0.00 10 1015.9
20260509010800 45 0.0 0.0 0.00 0.00 0.00 10 1015.9
20260509005732 46 0.0 0.0 0.00 0.00 0.00 10 1015.9
20260509004808 46 0.0 0.0 0.00 0.00 0.00 10 1015.9
20260509003808 46 0.0 0.0 0.00 0.00 0.00 10 1015.9
20260509002724 46 0.0 0.0 0.00 0.00 0.00 10 1015.8
20260509001719 46 0.0 0.0 0.00 0.00 0.00 10 1015.8
20260508235722 47 0.0 0.0 0.00 0.00 0.00 10 1015.7
20260508233724 47 0.0 0.0 0.00 0.00 0.00 16 1015.8
20260508232725 47 0.0 0.0 0.00 0.00 0.00 23 1015.9
20260508225722 48 0.0 0.0 0.00 0.00 0.00 27 1015.8
20260508224728 48 0.0 0.0 0.00 0.00 0.00 31 1015.8
20260508223720 48 0.0 0.0 0.00 0.00 0.00 35 1015.8
20260508222731 49 0.0 0.0 0.00 0.00 0.00 35 1015.6
20260508221726 49 0.0 0.0 0.00 0.00 0.00 37 1015.7
20260508220729 50 0.0 0.0 0.00 0.00 0.00 37 1015.6
20260508215718 50 0.0 0.0 0.00 0.00 0.00 37 1015.7
20260508214722 50 0.0 0.0 0.00 0.00 0.00 38 1015.6
20260508213741 50 0.0 0.0 0.00 0.00 0.00 38 1015.6
20260508212734 51 0.0 0.0 0.00 0.00 0.00 40 1015.6
20260508211723 51 68 0.0 2.0 0.00 0.00 0.00 42 1015.4
20260508210723 51 0.0 0.0 0.00 0.00 0.00 44 1015.2
20260508205807 51 45 0.0 1.0 0.00 0.00 0.00 45 1015.2
20260508204720 51 0.0 0.0 0.00 0.00 0.00 47 1015.2
20260508203738 51 45 1.0 3.0 0.00 0.00 0.00 49 1015.1
20260508202716 52 0.0 0.0 0.00 0.00 0.00 50 1015.2
20260508201725 52 0.0 0.0 0.00 0.00 0.00 52 1015.0
20260508200723 52 45 0.0 1.0 0.00 0.00 0.00 53 1015.3
20260508195717 52 0.0 0.0 0.00 0.00 0.00 55 1015.1
20260508194724 53 45 1.0 5.0 0.00 0.00 0.00 56 1015.0
20260508193809 53 45 1.0 4.0 0.00 0.00 0.00 58 1014.9
20260508191735 54 0.0 0.0 0.00 0.00 0.00 59 1014.6
20260508190718 54 0.0 0.0 0.00 0.00 0.00 60 1014.6
20260508185728 55 0.0 0.0 0.00 0.00 0.00 61 1014.5
20260508184718 55 0.0 0.0 0.00 0.00 0.00 62 1014.4
20260508183724 56 0.0 0.0 0.00 0.00 0.00 63 1014.3
20260508182739 57 0.0 0.0 0.00 0.00 0.00 63 1014.2
20260508181726 57 0.0 0.0 0.00 0.00 0.00 63 1014.2
20260508180721 57 0.0 0.0 0.00 0.00 0.00 63 1014.1
20260508175744 58 0.0 0.0 0.00 0.00 0.00 63 1014.0
20260508174717 58 0.0 0.0 0.00 0.00 0.00 64 1014.0
20260508173726 59 0.0 0.0 0.00 0.00 0.00 63 1014.0
20260508172727 59 0.0 0.0 0.00 0.00 0.00 63 1013.9
20260508171725 59 0.0 0.0 0.00 0.00 0.00 63 1014.0
20260508165732 59 68 0.0 1.0 0.00 0.00 0.00 63 1013.6
20260508164728 60 68 2.0 6.0 0.00 0.00 0.00 63 1013.5
20260508163723 59 0.0 0.0 0.00 0.00 0.00 63 1013.6
20260508162742 59 68 1.0 2.0 0.00 0.00 0.00 62 1013.7